Header for Extended Forecast Station List Page

Search by: ID | Name | Date | Parm | Value | Avg | % Avg
Sort by: ID | Name | Date | Parm | Value | Avg | % Avg

Enter search or view all records.

Click on id for station plot
#IDNameDateParmValueAvg% Avg
0LYDM8KOOTENAI-LIBBY DAM08-25-2014INFLOW (KAF)990122481
1LEOI1KOOTENAI-AT LEONIA08-25-2014DISCHARGE (KAF)26471849143
2BFEI1KOOTENAI-AT BONNERS FERRY08-25-2014STAGE (FT)MMM
3FCFM8NF FLATHEAD-NEAR COLUMBIA FALLS08-25-2014DISCHARGE (KAF)257235109
4WGCM8MF FLATHEAD-NEAR WEST GLACIER08-25-2014DISCHARGE (KAF)245196125
5HHWM8SF FLATHEAD-HUNGRY HORSE DAM08-25-2014INFLOW (KAF)17623575
6CFMM8FLATHEAD-AT COLUMBIA FALLS08-25-2014DISCHARGE (KAF)1045117189
7DLGM8CLARK FORK-AT DEER LODGE08-25-2014DISCHARGE (KAF)6857119
8DRMM8CLARK FORK-NR DRUMMOND08-25-2014DISCHARGE (KAF)167MM
9RCCM8ROCK CREEK-NEAR CLINTON08-25-2014DISCHARGE (KAF)505787
10BONM8BLACKFOOT-NEAR BONNER08-25-2014DISCHARGE (KAF)14115193
11ABOM8CLARK FORK-ABOVE MISSOULA08-25-2014DISCHARGE (KAF)373367102
12BITM8BITTERROOT-NEAR MISSOULA08-25-2014DISCHARGE (KAF)21223191
13BELM8CLARK FORK-BELOW MISSOULA08-25-2014DISCHARGE (KAF)58560597
14STRM8ST. REGIS-NEAR ST. REGIS08-25-2014DISCHARGE (KAF)3532110
15SRGM8CLARK FORK-AT ST REGIS08-25-2014DISCHARGE (KAF)73778394
16KERM8FLATHEAD-KERR DAM08-25-2014INFLOW (KAF)1201141585
17NOXM8CLARK FORK-NOXON RAPIDS DAM08-25-2014INFLOW (KAF)2619309285
18CABI1CLARK FORK-CABINET GORGE DAM08-25-2014INFLOW (KAF)2875323389
19PRTI1PRIEST-NEAR PRIEST RIVER08-25-2014DISCHARGE (KAF)204195104
20ALFW1PEND OREILLE-ALBENI FALLS DAM08-25-2014INFLOW (KAF)2940365480
21HOPI1PEND OREILLE-PEND OREILLE LAKE NR HOPE08-25-2014LAKE ELEVATION (FT)MMM
22COEI1COEUR D ALENE-COEUR D ALENE LAKE08-25-2014INFLOW (KAF)28135180
23SPOW1SPOKANE-AT SPOKANE08-25-2014DISCHARGE (KAF)486MM
24LLKW1SPOKANE-AT LONGLAKE08-25-2014INFLOW (KAF)65376286
25SATI1ST MARIES-NEAR SANTA08-25-2014DISCHARGE (KAF)182091
26SJMI1ST JOE-AT ST MARIES08-25-2014STAGE (FT)MMM
27CIBW1COLUMBIA-AT INTL BOUNDARY08-25-2014DISCHARGE (KAF)17799MM
28LAUW1KETTLE-AT LAURIER08-25-2014DISCHARGE (KAF)10012878
29GCDW1COLUMBIA-GRAND COULEE DAM08-25-2014INFLOW (KAF)1857817660105
30CHJW1COLUMBIA-CHIEF JOSEPH DAM08-25-2014INFLOW (KAF)180221907394
31TONW1OKANOGAN-NEAR TONASKET08-25-2014DISCHARGE (KAF)21427977
32PATW1METHOW-NEAR PATEROS08-25-2014DISCHARGE (KAF)9410490
33WELW1COLUMBIA-WELLS DAM08-25-2014INFLOW (KAF)183311937995
34CHDW1CHELAN-LAKE CHELAN DAM08-25-2014INFLOW (KAF)172169102
35RRHW1COLUMBIA-ROCKY REACH DAM08-25-2014INFLOW (KAF)186511984494
36ARDW1ENTIAT-NEAR ARDENVOIR08-25-2014DISCHARGE (KAF)2323101
37PESW1WENATCHEE-AT PESHASTIN08-25-2014DISCHARGE (KAF)273251109
38WANW1COLUMBIA-WANAPUM DAM08-25-2014INFLOW (KAF)1892618777101
39PRWW1COLUMBIA-PRIEST RAPIDS DAM08-25-2014INFLOW (KAF)189281904399
40KEDW1YAKIMA-KEECHELUS LAKE08-25-2014INFLOW (KAF)5639143
41KADW1KACHESS-KACHESS DAM08-25-2014INFLOW (KAF)3728130
42EASW1YAKIMA-AT EASTON08-25-2014DISCHARGE (KAF)9159154
43CLUW1CLE ELUM-CLE ELUM LAKE08-25-2014INFLOW (KAF)8581105
44TNAW1TEANAWAY-BELOW FORKS08-25-2014DISCHARGE (KAF)1918101
45UMTW1YAKIMA-AT UMTANUM08-25-2014DISCHARGE (KAF)379350109
46BUDW1BUMPING-BUMPING LAKE DAM08-25-2014INFLOW (KAF)3026114
47CLFW1NACHES-NEAR CLIFFDEL08-25-2014DISCHARGE (KAF)688184
48RILW1TIETON-RIMROCK LAKE NEAR RIMROCK08-25-2014INFLOW (KAF)6561108
49NACW1NACHES-NEAR NACHES08-25-2014DISCHARGE (KAF)11985140
50PARW1YAKIMA-NEAR PARKER08-25-2014DISCHARGE (KAF)386261148
51KIOW1YAKIMA-AT KIONA08-25-2014DISCHARGE (KAF)717545132
52IPDI1HENRYS FORK-ISLAND PARK DAM08-25-2014INFLOW (KAF)135130104
53CHEI1FALLS-NEAR CHESTER08-25-2014DISCHARGE (KAF)15799159
54ANTI1HENRYS FORK-AT ST. ANTHONY08-25-2014DISCHARGE (KAF)339325104
55TEAI1TETON-NEAR ST. ANTHONY08-25-2014DISCHARGE (KAF)150134112
56REXI1HENRYS FORK-AT REXBURG08-25-2014DISCHARGE (KAF)467405115
57JLKW4SNAKE-JACKSON LAKE AT DAM08-25-2014INFLOW (KAF)132119110
58JKSW4SNAKE-NEAR JACKSON08-25-2014DISCHARGE (KAF)47350793
59ALPW4SNAKE-NEAR ALPINE08-25-2014DISCHARGE (KAF)59261297
60PLDI1SF SNAKE-PALISADES DAM08-25-2014INFLOW (KAF)899902100
61HEII1SNAKE-NEAR HEISE08-25-2014DISCHARGE (KAF)1007102898
62RIDI1WILLOW CREEK-RIRIE DAM08-25-2014INFLOW (KAF)4763
63SIFI1SNAKE-AB EAGLE ROCK NR IDAHO FALLS08-25-2014DISCHARGE (KAF)1075947113
64SHYI1SNAKE-NEAR SHELLEY08-25-2014DISCHARGE (KAF)1027826124
65SNAI1SNAKE-AT BLACKFOOT08-25-2014DISCHARGE (KAF)809621130
66BFTI1SNAKE-NEAR BLACKFOOT08-25-2014DISCHARGE (KAF)830653127
67PIHI1PORTNEUF-AT POCATELLO08-25-2014DISCHARGE (KAF)334474
68AFRI1SNAKE-AMERICAN FALLS RESERVOIR08-25-2014INFLOW (KAF)14751325111
69MILI1SNAKE-AT MILNER08-25-2014DISCHARGE (KAF)7727528
70HOTI1BRUNEAU-NEAR HOT SPRINGS08-25-2014DISCHARGE (KAF)2423108
71SWAI1SNAKE-BELOW SWAN FALLS08-25-2014DISCHARGE (KAF)1914230583
72HWRI1BIG LOST-AT HOWELL RANCH NEAR CHILLY08-25-2014DISCHARGE (KAF)192770
73MACI1BIG LOST-MACKAY RESERVOIR NEAR MACKAY08-25-2014INFLOW (KAF)3013225
74HALI1BIG WOOD-AT HAILEY08-25-2014DISCHARGE (KAF)344673
75MAGI1BIG WOOD-MAGIC DAM08-25-2014INFLOW (KAF)172860
76LWRI1LITTLE WOOD-LITTLE WOOD DAM08-25-2014INFLOW (KAF)111574
77OWYO3OWYHEE-BELOW OWYHEE DAM08-25-2014INFLOW (KAF)335956
78ARAI1SF BOISE-ANDERSON RANCH DAM08-25-2014INFLOW (KAF)8168119
79LUCI1BOISE-LUCKY PEAK DAM08-25-2014INFLOW (KAF)104MM
80BIGI1BOISE-AT GLENWOOD BRIDGE08-25-2014DISCHARGE (KAF)668181
81PARI1BOISE-NEAR PARMA08-25-2014DISCHARGE (KAF)18422581
82WRMO3MALHEUR-WARM SPRINGS DAM08-25-2014INFLOW (KAF)99101
83BERO3MALHEUR-AGENCY VALLEY DAM08-25-2014INFLOW (KAF)101098
84BULO3BULLY CREEK-BULLY CREEK DAM08-25-2014INFLOW (KAF)1197
85VALO3MALHEUR-NEAR VALE08-25-2014DISCHARGE (KAF)72727
86CSDI1NF PAYETTE-CASCADE DAM08-25-2014INFLOW (KAF)808099
87DEDI1DEADWOOD-NEAR LOWMAN08-25-2014INFLOW (KAF)1818100
88EMMI1PAYETTE-NEAR EMMETT08-25-2014DISCHARGE (KAF)26536872
89WSRI1WEISER-NEAR WEISER08-25-2014DISCHARGE (KAF)415081
90WEII1SNAKE-AT WEISER08-25-2014DISCHARGE (KAF)2293333469
91BRNI1SNAKE-BROWNLEE DAM08-25-2014INFLOW (KAF)2457340372
92WHBI1SALMON-AT WHITEBIRD08-25-2014DISCHARGE (KAF)1073111996
93TRYO3GRANDE RONDE-TROY08-25-2014DISCHARGE (KAF)16422075
94ANAW1SNAKE-NEAR ANATONE08-25-2014DISCHARGE (KAF)3555498171
95ORFI1CLEARWATER-AT OROFINO08-25-2014DISCHARGE (KAF)527521101
96DWRI1NF CLEARWATER-DWORSHAK DAM08-25-2014INFLOW (KAF)410390105
97SPDI1CLEARWATER-AT SPALDING08-25-2014DISCHARGE (KAF)13281235108
98LGDW1SNAKE-LOWER GRANITE DAM08-25-2014INFLOW (KAF)4817634876
99LGSW1SNAKE-LITTLE GOOSE DAM08-25-2014INFLOW (KAF)4813638475
100LMNW1SNAKE-LOWER MONUMENTAL DAM08-25-2014INFLOW (KAF)4804639475
101IHDW1SNAKE-ICE HARBOR DAM08-25-2014INFLOW (KAF)4789631676
102TCHW1WALLA WALLA-NEAR TOUCHET08-25-2014DISCHARGE (KAF)4239107
103MCDW1COLUMBIA-MCNARY DAM08-25-2014INFLOW (KAF)244942652492
104GIBO3UMATILLA-NEAR GIBBON08-25-2014DISCHARGE (KAF)2118113
105PDTO3UMATILLA-AT PENDLETON08-25-2014DISCHARGE (KAF)3531112
106MYKO3MCKAY CREEK-NEAR PILOT ROCK08-25-2014DISCHARGE (KAF)65114
107UMAO3UMATILLA-NEAR UMATILLA08-25-2014DISCHARGE (KAF)6029202
108MONO3NF JOHN DAY-AT MONUMENT08-25-2014DISCHARGE (KAF)374877
109SERO3JOHN DAY-AT SERVICE CK08-25-2014DISCHARGE (KAF)739279
110JDAO3COLUMBIA-JOHN DAY DAM08-25-2014INFLOW (KAF)251202709593
111MODO3DESCHUTES-AT MOODY NR BIGGS08-25-2014DISCHARGE (KAF)11791185100
112TDAO3COLUMBIA-THE DALLES DAM08-25-2014INFLOW (KAF)258592894989
113PITW1KLICKITAT-NEAR PITT08-25-2014DISCHARGE (KAF)19420197
114HODO3HOOD-NEAR TUCKER BRIDGE08-25-2014DISCHARGE (KAF)173141122
115UNDW1WHITE SALMON-NEAR UNDERWOOD08-25-2014DISCHARGE (KAF)172171101
116BONO3COLUMBIA-BONNEVILLE DAM08-25-2014INFLOW (KAF)26394MM